Location: Cheching
(60.0667°N, 164.2167°W)
Time: 22:06:55
(UTC+00:00)

LilacSat-2 - Pass Details

Date: 19 January 2021
Orbit: 512 x 534 km, 97.5° (Epoch: 07 March)

Event Time Altitude Azimuth Distance (km) Brightness Sun altitude
Rises 17:50:50 0° 13° (NNE) 2,683 ? -12.2°
Reaches altitude 10° 17:53:00 10° 7° (N) 1,792 ? -11.9°
Maximum altitude 17:56:41 44° 295° (WNW) 744 ? -11.5°
Drops below altitude 10° 18:00:22 10° 223° (SW) 1,789 ? -11.1°
Sets 18:02:32 0° 217° (SW) 2,677 ? -10.8°
